Starlink 11712

operational
NORAD ID: 64135 Int'l Des: 2025-111 Owner: SPXS Country: US Constellation: starlink
LEOCIRCULAR

About Starlink 11712

Description loading...

Live Position

Loading 3D Globe...

Upcoming Passes

Altitude History

Altitude vs Time

uPlot chart will show altitude changes over time

Two-Line Element Set

1 64135U 25111N 25353.31394910 .00095407 00000-0 73835-3 0 9991
2 64135 43.0008 98.7255 0001689 267.1927 92.8748 15.70845075 33994
Epoch: Dec 19, 2025 • Age: 10 hours

Current Status

Altitude 357.4 km
Velocity 7.70 km/s
Sub-Earth Point 28.79°N, 107.11°W
Launch Date May 24, 2025
Age 0.5 years
Type internet

Technical Details

Classification Payload
Mass 960.00 kg
Dry Mass 910.00 kg
Total Mass 960.00 kg
Length 0.30 m
Diameter 4.10 m
Span 29.00 m
Shape Box + pan
Manufacturer SPXS
Bus Type Starlink V2MD
Phase Status In Orbit
Owner/State SPXS/US

Large Constellations

Loading constellations...